Date String (YYYY-MM-DD hh:mm:ss) UTC,Instrument flags,Ambient pressure (hPa),Sample flow (lpm),Bypass flow (lpm),Sample temperature (°C),Ambient temperature (°C),ASC tube jacket temperature (°C),LED temperature (°C),Box temperature (°C),Sample RH (%),Span deviation,Mass concentration (μg/m³),Mass concentration (μg/m³),Mass concentration (μg/m³)
DateTimeUTC,F1_M11,P_M11,Q1_M11,Q2_M11,T1_M11,T2_M11,T3_M11,T4_M11,T5_M11,U1_M11,ZSPAN_M11,X0_M11,X2_M11,X1_M11
2022-06-16 17:00:00,,0830.1,5.00,0.00,29.0,27.1,00.0,37.8,30.9,17.2,0000.0,0029.94,0006.89,0003.81
2022-06-16 17:01:00,,0830.1,5.00,0.00,29.0,27.3,00.0,37.8,30.9,17.4,0000.0,0031.26,0006.92,0003.82
2022-06-16 17:02:00,,0830.1,5.00,0.00,29.0,27.5,00.0,37.8,31.0,18.2,0000.0,0032.16,0006.94,0003.79
2022-06-16 17:03:00,,0830.1,4.99,0.00,29.0,27.7,00.0,37.8,31.0,17.3,0000.0,0033.40,0006.94,0003.77
2022-06-16 17:04:00,,0830.1,5.00,0.00,29.1,27.8,00.0,37.8,31.1,16.9,0000.0,0034.19,0006.93,0003.76
2022-06-16 17:05:00,,0830.0,5.00,0.00,29.1,28.0,00.0,37.8,31.1,16.8,0000.0,0035.29,0006.90,0003.75
2022-06-16 17:06:00,,0830.1,5.00,0.00,29.1,28.1,00.0,37.8,31.2,16.7,0000.0,0034.50,0006.89,0003.74
2022-06-16 17:07:00,,0830.0,5.01,0.00,29.1,27.7,00.0,37.8,31.1,17.1,0000.0,0034.35,0006.87,0003.74
2022-06-16 17:08:00,,0830.0,5.00,0.00,29.1,27.0,00.0,37.7,30.9,17.1,0000.0,0034.99,0006.85,0003.74
2022-06-16 17:09:00,,0830.0,5.00,0.00,29.0,26.8,00.0,37.7,30.8,17.2,0000.0,0033.56,0006.79,0003.73
2022-06-16 17:10:00,,0830.0,4.99,0.00,29.0,26.9,00.0,37.7,30.8,17.4,0000.0,0032.16,0006.69,0003.71
2022-06-16 17:11:00,,0829.9,5.00,0.00,28.9,27.0,00.0,37.7,30.8,17.6,0000.0,0032.27,0006.65,0003.68
2022-06-16 17:12:00,,0830.0,4.98,0.00,28.9,27.2,00.0,37.7,30.9,17.3,0000.0,0031.53,0006.57,0003.67
2022-06-16 17:13:00,,0829.9,5.00,0.00,29.0,27.4,00.0,37.7,30.9,17.4,0000.0,0031.24,0006.55,0003.65
2022-06-16 17:14:00,,0829.9,5.01,0.00,29.0,27.6,00.0,37.7,30.9,17.5,0000.0,0032.01,0006.60,0003.66
2022-06-16 17:15:00,,0829.9,5.00,0.00,29.0,27.8,00.0,37.7,31.0,17.2,0000.0,0031.84,0006.60,0003.66
2022-06-16 17:16:00,,0830.1,5.00,0.00,29.0,27.9,00.0,37.8,31.0,17.2,0000.0,0031.42,0006.54,0003.66
2022-06-16 17:17:00,,0829.9,5.00,0.00,29.1,28.1,00.0,37.8,31.1,17.6,0000.0,0031.89,0006.55,0003.68
2022-06-16 17:18:00,,0829.9,5.00,0.00,29.1,28.1,00.0,37.8,31.1,17.6,0000.0,0031.04,0006.52,0003.68
2022-06-16 17:19:00,,0829.8,5.02,0.00,29.1,27.5,00.0,37.8,31.0,17.9,0000.0,0030.23,0006.56,0003.67
2022-06-16 17:20:00,,0829.9,5.00,0.00,29.0,26.9,00.0,37.7,30.8,18.4,0000.0,0033.92,0006.67,0003.68
2022-06-16 17:21:00,,0830.0,5.00,0.00,29.0,26.8,00.0,37.7,30.8,18.6,0000.0,0033.73,0006.70,0003.68
2022-06-16 17:22:00,,0830.0,4.98,0.00,28.9,26.9,00.0,37.7,30.8,18.7,0000.0,0032.12,0006.69,0003.68
2022-06-16 17:23:00,,0829.9,5.00,0.00,28.9,27.1,00.0,37.7,30.8,18.9,0000.0,0031.53,0006.79,0003.71
2022-06-16 17:24:00,,0829.9,5.00,0.00,28.9,27.3,00.0,37.7,30.9,18.5,0000.0,0030.60,0006.75,0003.74
2022-06-16 17:25:00,,0829.9,5.00,0.00,28.9,27.5,00.0,37.7,30.9,18.4,0000.0,0027.72,0006.65,0003.76
2022-06-16 17:26:00,,0829.9,5.02,0.00,29.0,27.6,00.0,37.7,31.0,18.1,0000.0,0026.87,0006.60,0003.78
2022-06-16 17:27:00,,0829.9,5.00,0.00,29.0,27.8,00.0,37.7,31.0,18.4,0000.0,0025.98,0006.62,0003.80
2022-06-16 17:28:00,,0830.0,4.99,0.00,29.0,28.0,00.0,37.7,31.1,18.2,0000.0,0026.10,0006.69,0003.83
2022-06-16 17:29:00,,0830.0,5.00,0.00,29.1,27.9,00.0,37.7,31.0,17.9,0000.0,0026.65,0006.69,0003.86
2022-06-16 17:30:00,,0829.9,5.00,0.00,29.0,27.1,00.0,37.7,30.8,18.4,0000.0,0027.15,0006.74,0003.89
2022-06-16 17:31:00,,0829.9,5.01,0.00,28.9,26.7,00.0,37.6,30.7,18.4,0000.0,0025.58,0006.74,0003.90
2022-06-16 17:32:00,,0829.9,5.01,0.00,28.9,26.8,00.0,37.6,30.7,18.6,0000.0,0024.87,0006.70,0003.92
2022-06-16 17:33:00,,0829.9,5.01,0.00,28.9,26.9,00.0,37.6,30.7,18.3,0000.0,0025.28,0006.73,0003.95
2022-06-16 17:34:00,,0829.8,4.99,0.00,28.9,27.1,00.0,37.6,30.7,18.6,0000.0,0025.91,0006.65,0003.96
2022-06-16 17:35:00,,0829.8,4.99,0.00,28.9,27.2,00.0,37.6,30.8,18.5,0000.0,0025.49,0006.64,0003.95
2022-06-16 17:36:00,,0829.9,4.99,0.00,28.9,27.4,00.0,37.6,30.9,18.7,0000.0,0027.34,0006.81,0003.97
2022-06-16 17:37:00,,0829.9,5.01,0.00,28.9,27.6,00.0,37.7,30.9,19.0,0000.0,0027.83,0006.87,0004.01
2022-06-16 17:38:00,,0829.9,5.00,0.00,28.9,27.8,00.0,37.7,31.0,18.9,0000.0,0029.55,0006.96,0004.03
2022-06-16 17:39:00,,0830.0,4.99,0.00,29.0,27.9,00.0,37.7,31.0,18.5,0000.0,0030.03,0006.98,0004.03
2022-06-16 17:40:00,,0829.9,5.00,0.00,29.0,28.1,00.0,37.7,31.1,18.5,0000.0,0030.26,0007.00,0004.04
2022-06-16 17:41:00,,0829.9,5.00,0.00,29.0,28.1,00.0,37.7,31.1,18.3,0000.0,0030.84,0006.99,0004.05
2022-06-16 17:42:00,,0829.9,4.99,0.00,29.0,27.5,00.0,37.7,30.9,18.7,0000.0,0030.35,0006.99,0004.07
2022-06-16 17:43:00,,0829.9,4.99,0.00,29.0,26.9,00.0,37.6,30.7,18.6,0000.0,0030.86,0007.13,0004.10
2022-06-16 17:44:00,,0829.9,5.00,0.00,28.9,26.8,00.0,37.6,30.7,18.7,0000.0,0031.44,0007.26,0004.11
2022-06-16 17:45:00,,0829.9,5.00,0.00,28.9,26.9,00.0,37.6,30.7,19.0,0000.0,0031.30,0007.41,0004.13
2022-06-16 17:46:00,,0829.9,4.99,0.00,28.9,27.1,00.0,37.6,30.8,18.7,0000.0,0032.67,0007.44,0004.15
2022-06-16 17:47:00,,0829.9,5.00,0.00,28.9,27.3,00.0,37.6,30.8,18.6,0000.0,0032.82,0007.37,0004.17
2022-06-16 17:48:00,,0829.9,4.99,0.00,28.9,27.4,00.0,37.6,30.9,18.8,0000.0,0032.29,0007.39,0004.17
2022-06-16 17:49:00,,0829.9,4.99,0.00,28.9,27.6,00.0,37.7,30.9,18.8,0000.0,0031.68,0007.43,0004.16
2022-06-16 17:50:00,,0829.9,5.01,0.00,28.9,27.8,00.0,37.7,31.0,19.1,0000.0,0030.97,0007.42,0004.16
2022-06-16 17:51:00,,0829.9,5.00,0.00,29.0,28.0,00.0,37.7,31.0,19.1,0000.0,0030.94,0007.42,0004.17
2022-06-16 17:52:00,,0829.9,5.00,0.00,29.0,28.0,00.0,37.7,31.1,18.9,0000.0,0030.81,0007.39,0004.17
2022-06-16 17:53:00,,0829.8,4.99,0.00,29.0,27.6,00.0,37.7,30.9,18.5,0000.0,0031.64,0007.34,0004.18
2022-06-16 17:54:00,,0829.9,5.00,0.00,28.9,26.8,00.0,37.6,30.7,18.6,0000.0,0032.38,0007.36,0004.18
2022-06-16 17:55:00,,0829.9,5.01,0.00,28.9,26.7,00.0,37.6,30.7,18.7,0000.0,0032.65,0007.29,0004.18
2022-06-16 17:56:00,,0829.9,5.01,0.00,28.9,26.8,00.0,37.6,30.7,19.6,0000.0,0032.75,0007.17,0004.18
2022-06-16 17:57:00,,0829.8,5.00,0.00,28.8,27.0,00.0,37.6,30.7,19.7,0001.5,0032.08,0007.15,0004.19
2022-06-16 17:58:00,,0829.9,5.00,0.00,28.8,27.2,00.0,37.6,30.8,19.6,0001.2,0030.68,0007.19,0004.18
2022-06-16 17:59:00,,0829.9,4.99,0.00,28.9,27.4,00.0,37.6,30.8,19.0,0000.0,0030.74,0007.19,0004.17
